Regional Weather Roundup
Issued by NWS Wakefield, VA

Home | Current Version | Previous Version | Graphics & Text | Print | Product List | Glossary On
Versions: 1 2 3 4 5 6 7 8 9 10 11 12 13 14 15 16 17 18 19 20 21 22 23 24 25 26 27 28 29 30 31 32 33 34 35 36 37 38 39 40 41 42 43 44 45 46 47 48 49 50
000
ASUS41 KAKQ 201610
RWRAKQ

REGIONAL WEATHER ROUNDUP
NATIONAL WEATHER SERVICE WAKEFIELD VA
1200 PM EDT MON OCT 20 2014

Note: "fair" indicates few or no clouds below 12,000 feet with no
significant weather and/or obstructions to visibility. * = Denotes
station may not report precipitation (e.g., rain,snow,etc.),
thunder or fog.

VAZ042-051-052>054-056-201700-
NORTHERN VIRGINIA

CITY           SKY/WX    TMP DP  RH WIND       PRES   REMARKS
WASH NATIONAL  CLOUDY    63  41  44 S14       30.08F
DULLES           N/A    N/A N/A N/A MISG        N/A
FORT BELVOIR   MOSUNNY   60  42  52 S12       30.08F
QUANTICO       MOSUNNY   61  43  51 SW8       30.08F
FREDERICKSBRG* MOSUNNY   64  44  48 SW13      30.07F
STAFFORD*      MOSUNNY   62  42  47 SW9G16    30.11F
WARRENTON      SUNNY     63  49  61 S16G22    30.05F
CULPEPER*      MOSUNNY   61  43  51 SW13      30.06F
MANASSAS*      SUNNY     63  45  51 S12G18    30.06F
LEESBURG*      MOSUNNY   59  43  55 S15       30.05F
WINCHESTER     PTSUNNY   57  32  38 S5        30.03F
FRONT ROYAL*   SUNNY     59  41  51 S7        30.01F
LURAY*         SUNNY     61  43  51 S6        30.02F
$$

VAZ048-049-060>072-079>083-201700-
CENTRAL AND SOUTH CENTRAL VIRGINIA...AND NORTH CENTRAL NORTH CAROLINA

CITY           SKY/WX    TMP DP  RH WIND       PRES   REMARKS
RICHMOND       PTSUNNY   63  42  46 S16G22    30.11F
CHESTERFIELD*  PTSUNNY  N/A N/A N/A S12       30.12F
PETERSBURG*    PTSUNNY   61  41  46 S7G16     30.12F
HANOVER        MOSUNNY   63  43  48 S10       30.12F
TAPPAHANNOCK*  MOSUNNY   63  37  39 S8        30.12F
CHARLOTTSVILLE SUNNY     59  42  53 S8        30.05F
ORANGE*        MOSUNNY   61  45  55 S14       30.07F
LOUISA*        MOSUNNY   61  45  55 S10       30.06F
FARMVILLE*     MOSUNNY   63  45  51 S17       30.08F
CREWE*         CLOUDY    60  43  52 SW7       30.10F
FORT PICKETT*  CLOUDY    61  43  52 SW13G20   30.11F
LUNENBURG*     CLOUDY    61  48  62 S7        30.10F
SOUTH HILL*    CLOUDY    64  46  52 SW8       30.17F
LAWRENCEVILLE* CLOUDY    60  46  59 S6        30.13F
ROANOKE RAPIDS CLOUDY    61  43  51 S7        30.13F
RALEIGH        MOSUNNY   65  43  44 SW14      30.14F
$$

VAZ088>098-201700-
SOUTHEAST VIRGINIA

CITY           SKY/WX    TMP DP  RH WIND       PRES   REMARKS
NORFOLK        CLOUDY    64  38  38 S15       30.14F
VIRGINIA BEACH CLOUDY    64  42  44 S13       30.13F
NORFOLK NAVAL  PTSUNNY   66  38  35 SW15G21   30.15F
WEST POINT*    MOSUNNY   64  40  42 S10       30.15F
NEWPORT NEWS   CLOUDY    63  42  46 SW14      30.14F
LANGLEY AFB    CLOUDY    62  39  41 SW13      30.14F
FORT EUSTIS    PTSUNNY   60  41  49 VRB6      30.13F
WILLIAMSBURG*  PTSUNNY   63  45  51 SW6       30.15F
HR EXEC AP*    CLOUDY    63  39  42 S10       30.16F
FRANKLIN*      CLOUDY    63  43  48 S7        30.14F
WAKEFIELD      PTSUNNY   61  42  49 SW8       30.14F
$$

VAZ020-022-025-037-045-201700-
WEST CENTRAL AND SOUTHWEST VIRGINIA

CITY           SKY/WX    TMP DP  RH WIND       PRES   REMARKS
STAUNTON*      SUNNY     63  37  38 SW14      30.05F
HOT SPRINGS VA MOSUNNY   51  33  51 W13       30.05S
LYNCHBURG      SUNNY     59  46  62 S15       30.08F
DANVILLE       SUNNY     63  46  54 SW8       30.11F
SOUTH BOSTON*  NOT AVBL
MARTINSVILLE   SUNNY     63  47  57 SW7       30.11F
ROANOKE        PTSUNNY   58  42  55 SE6       30.09F
BLACKSBURG     SUNNY     59  48  67 NW5       30.09F
DUBLIN*        SUNNY     60  45  57 W3        30.08F
MARION*        SUNNY     59  44  58 SW10G18   30.10F
HILLSVILLE*    SUNNY     58  44  60 SW10      30.08F
RICHLANDS*     SUNNY     59  45  60 SW13G25   30.08F
WISE*          SUNNY     57  41  54 SW15G23   30.09S
ABINGDON*      SUNNY     59  45  60 W13       30.09F
$$

MDZ021>025-VAZ099-100-201700-
SOUTHERN MARYLAND AND THE DELMARVA PENINSULA

CITY           SKY/WX    TMP DP  RH WIND       PRES   REMARKS
PATUXENT RIVER PTSUNNY   62  38  40 S12G21    30.10F
BAY BRIDGE APT   N/A     59  37  44 S10G18    30.10F
LEONARDTOWN    MOSUNNY   59  37  44 SW10G17   30.12F
DOVER          CLOUDY    59  36  42 S10         N/A
GEORGETOWN     PTSUNNY   63  36  36 S10G18    30.13F
EASTON         SUNNY     61  43  51 S12G20    30.14F
CAMBRIDGE      MOSUNNY   61  41  48 S6        30.11F
SALISBURY      PTSUNNY   63  39  41 S12       30.13F
OCEAN CITY     MOSUNNY   60  41  49 SW7       30.14F
WALLOPS ISLAND MOSUNNY   64  42  44 SW13      30.14F
ACCOMACK*      MOSUNNY   63  37  39 SW9       30.14F
$$

NCZ012>017-030>032-201700-
EASTERN NORTH CAROLINA

CITY           SKY/WX    TMP DP  RH WIND       PRES   REMARKS
ELIZABETH CITY MOSUNNY   66  44  45 S12       30.16F
AHOSKIE*       CLOUDY    62  41  45 S8        30.14F
EDENTON*       MOSUNNY   65  42  43 S9        30.15F
CURRITUCK*     MOSUNNY  N/A N/A N/A S6        30.16F
KILL DEVIL HLS MOSUNNY   65  44  46 S5        30.14F
MANTEO         MOSUNNY   64  45  49 S6        30.16F
CAPE HATTERAS  SUNNY     67  48  50 VRB3      30.16F
TARBORO*       MOSUNNY   66  46  48 S9        30.15F
GOLDSBORO      MOSUNNY   67  51  56 S3        30.13F
WASHINGTON     SUNNY     64  47  52 S6        30.15F
GREENVILLE     MOSUNNY   66  46  48 SW9       30.16F
NEW BERN       SUNNY     69  49  48 S6        30.16F
WILMINGTON     SUNNY     70  52  52 SW5       30.15F
$$

VAZ048-201700-
ELSEWHERE

CITY           SKY/WX    TMP DP  RH WIND       PRES   REMARKS
HARRISBURG PA  PTSUNNY   59  38  45 S9        30.05F
BALTIMORE      PTSUNNY   60  40  47 S12       30.07F
ANNAPOLIS      PTSUNNY   60  43  53 S13G24    30.09F
ANDREWS AFB    SUNNY     60  42  51 S16       30.07F
WILMINGTON DE  PTSUNNY   58  38  47 S12       30.11F
PHILADELPHIA   PTSUNNY   57  39  51 S12       30.11F
WILDWOOD NJ*   CLOUDY    59  34  38 SW14      30.14F
ATLANTIC CITY  CLOUDY    58  35  42 S7        30.12F
HENDERSON NC   MOSUNNY   62  41  46 S9        30.12F
GREENSBORO     MOSUNNY   64  47  53 SW13      30.10F
ROCKY MOUNT    MOSUNNY   65  45  48 S10       30.14F
FAYETTEVILLE   SUNNY     68  44  42 SW12      30.13F
CHARLOTTE      SUNNY     65  46  50 SW8       30.12F
$$

VAZ100-201700-
MARINE

STATION/POSITION TIME  TEMP    WIND        PRES    WAVE   SWELL
                       AIR SEA DIR/SP/G            HT/PER HT/PER
                 (UTC) (F)     (DEG/KT/KT) (MB)    (FT/S) (FT/S)
44066 TX TWR #4  1600   54 66  260/  8/ 12 1020.3F   3/11   2/11
CAPE MAY NJ      1600   58 66  200/ 11/ 13 1019.7F
LEWES DE         1600   60 60  200/  6/ 10 1019.8F
15NM E FENWICK I 1600   60 66  210/ 12/ 16 1020.4F   2/12   2/12
OCEAN-CITY-INLET 1600   59 65  230/  8/ 11 1020.0F
WACHAPREAGUE VA  1600   61 59  210/ 12/ 16 1020.6F
THOMAS POINT MD  1600   58 64  190/ 20/ 22 1019.8F
GOOSES REEF MD   1600   60     210/ 14/ 17 1019.8F
COVE POINT MD    1600   59     210/ 16/ 19 1019.4F
SOLOMONS ISLAND  1600      66                N/A
BISHOPS HEAD MD  1600   60 57  210/ 12/ 16 1019.4F
PINEY POINT MD   1600          220/ 16/ 18   N/A
POTOMAC MD       1600   60     220/ 12/ 16 1019.4F
CAMBRIDGE MD     1600   61 62  180/  7/ 11 1019.3F
LEWISETTA VA     1600   60 62  230/ 10/ 13 1019.5F
RAPPAHANNOCK LGT 1600          200/ 17/ 20 1020.7F
STINGRAY PT      1600   60     210/ 14/ 16 1021.0F
YORK RVR RNG VA  1600   60     230/ 11/ 13 1020.0F
YORKTOWN VA      1600   59 67  230/ 10/ 13 1020.1F
JAMESTOWN VA     1600   58     220/  8/ 14   N/A
DOMINION TERM VA 1600   60     220/ 11/ 14 1020.7F
KIPTOPEKE VA     1600      69  220/ 12/ 15   N/A
CHES BAY BRIDGE  1600   61 68  190/ 12/ 14 1020.0F
CHESAPEAKE LGHT  1500   61     200/ 12/ 14 1021.9F
WILLOUBY STN VA  1600   61     220/ 15/ 18 1019.2F
S CRANEY ISL VA  1600          190/  9/ 12 1020.4F
CAPE HENRY BUOY  1600      69                N/A     3/12   2/12
1ST LANDING BUOY 1600   62     200/ 12/ 16 1020.4F
CAPE CHARLES BUO 1600      69                N/A     2/11   2/11
64NM E OF VA BCH 1600   63 69  220/  6/  8 1020.8F   3/13   3/13
DUCK PIER NC     1600   62 68  180/  9/ 12 1020.3F
44100 DUCK FRF   1600      71                N/A     3/13   2/13
44056 DUCK FRF   1600                        N/A     2/13   2/13
OREGON INLET NC  1600   63 67  240/  3/  4 1021.2F
HATTERAS NC      1600   64 68  330/  4/  5 1021.8F
DIAMOND SHLS NC  1500   65     320/  6/  8 1021.7F   4/12   3/12
CAPE LOOKOUT NC  1500   64     360/  6/  7 1021.5F
$$


USA.gov is the U.S. government's official web portal to all federal, state and local government web resources and services.